Miles City, MT

4:46 PM MST on November 21, 2017 (GMT -0700)
Wiley

Weather History for KMLS - August, 2013

Change the Weather History Date:

Wednesday, August 21, 2013

  Actual Average Record
Temperature  
Mean Temperature 75 °F 72 °F  
Max Temperature 88 °F 86 °F 102 °F (1969)
Min Temperature 61 °F 57 °F 41 °F (1945)
Degree Days  
Heating Degree Days 0 1  
Month to date heating degree days 0 5  
Since 1 June heating degree days 59 106  
Since 1 July heating degree days 0 17  
Cooling Degree Days 10 7  
Month to date cooling degree days 171 198  
Year to date cooling degree days 596 613  
Since 1 June cooling degree days 583 593  
Growing Degree Days 24 (Base 50)    
Moisture  
Dew Point 53 °F    
Average Humidity 47    
Maximum Humidity 60    
Minimum Humidity 34    
Precipitation  
Precipitation 0.00 in 0.03 in 0.36 in (2002)
Month to date precipitation 1.58 0.66  
Year to date precipitation 13.70 9.51  
Sea Level Pressure  
Sea Level Pressure 29.95 in    
Wind  
Wind Speed 12 mph (NE)    
Max Wind Speed 21 mph    
Max Gust Speed 26 mph    
Visibility 10 miles    
Events      
T = Trace of Precipitation, MM = Missing Value Source: NWS Daily Summary

Daily Weather History Graph

Daily Weather History Graph

Search for Another Location

Airport or City:

Trip Planner

Search our weather history database for the weather conditions in past years. The results will help you decide how hot, cold, wet, or windy it might be!

Date:

Astronomy

Aug. 21, 2013 Rise Set
Actual Time 6:10 AM MDT 8:02 PM MDT
Civil Twilight 5:37 AM MDT 8:34 PM MDT
Nautical Twilight 4:58 AM MDT 9:13 PM MDT
Astronomical Twilight 4:14 AM MDT 9:56 PM MDT
Moon 8:04 PM MDT 6:59 AM MDT
Length of Visible Light 14h 56m
Length of Day
13h 52m
Full, 99% of the Moon is Illuminated
Aug 21
Full
Aug 28
Last Quarter
Sep 5
New
Sep 12
First Quarter
Sep 19
Full

Hourly Weather History & Observations

Time (MDT) Temp. Heat Index Dew Point Humidity Pressure Visibility Wind Dir Wind Speed Gust Speed Precip Events Conditions
12:53 AM 66.0 °F - 48.0 °F 52% 29.84 in 10.0 mi NNE 9.2 mph - N/A   Clear
1:53 AM 64.9 °F - 46.9 °F 52% 29.85 in 10.0 mi NNE 9.2 mph - N/A   Clear
2:53 AM 64.0 °F - 46.9 °F 54% 29.86 in 10.0 mi NNE 8.1 mph - N/A   Clear
3:53 AM 64.0 °F - 46.9 °F 54% 29.88 in 10.0 mi NE 9.2 mph - N/A   Clear
4:53 AM 63.0 °F - 48.0 °F 58% 29.89 in 10.0 mi NNE 9.2 mph - N/A   Clear
5:53 AM 62.1 °F - 48.0 °F 60% 29.90 in 10.0 mi NE 8.1 mph - N/A   Clear
6:53 AM 63.0 °F - 48.9 °F 60% 29.90 in 10.0 mi ENE 8.1 mph - N/A   Clear
7:53 AM 71.1 °F - 52.0 °F 51% 29.91 in 8.0 mi NNE 6.9 mph - N/A   Clear
8:53 AM 75.0 °F - 53.1 °F 46% 29.95 in 10.0 mi NNE 6.9 mph - N/A   Clear
9:53 AM 78.1 °F - 54.0 °F 43% 29.96 in 10.0 mi NNE 12.7 mph - N/A   Clear
10:53 AM 79.0 °F - 57.0 °F 47% 29.98 in 10.0 mi NNE 17.3 mph - N/A   Clear
11:53 AM 81.0 °F 81.0 °F 57.0 °F 44% 29.99 in 10.0 mi NE 15.0 mph - N/A   Clear
12:53 PM 82.0 °F 82.0 °F 57.9 °F 44% 30.00 in 10.0 mi NE 16.1 mph 23.0 mph N/A   Clear
1:53 PM 84.0 °F 83.3 °F 57.0 °F 40% 30.00 in 10.0 mi NE 15.0 mph - N/A   Clear
2:53 PM 86.0 °F 84.9 °F 57.0 °F 37% 29.99 in 10.0 mi NNE 9.2 mph 16.1 mph N/A   Clear
3:53 PM 87.1 °F 85.3 °F 55.0 °F 33% 29.98 in 10.0 mi NNE 16.1 mph 24.2 mph N/A   Clear
4:53 PM 87.1 °F 85.3 °F 55.0 °F 33% 29.98 in 10.0 mi NE 10.4 mph - N/A   Clear
5:53 PM 86.0 °F 84.7 °F 55.9 °F 36% 29.97 in 10.0 mi NE 10.4 mph - N/A   Clear
6:53 PM 82.9 °F 82.4 °F 57.0 °F 41% 29.99 in 10.0 mi NE 11.5 mph - N/A   Clear
7:53 PM 80.1 °F 80.2 °F 55.9 °F 43% 29.99 in 10.0 mi NE 15.0 mph - N/A   Clear
8:53 PM 77.0 °F - 54.0 °F 45% 30.01 in 10.0 mi NE 18.4 mph 24.2 mph N/A   Clear
9:53 PM 73.9 °F - 53.1 °F 48% 30.02 in 10.0 mi NE 17.3 mph - N/A   Clear
10:53 PM 72.0 °F - 51.1 °F 48% 30.03 in 10.0 mi ENE 15.0 mph - N/A   Clear
11:53 PM 69.1 °F - 48.9 °F 49% 30.04 in 10.0 mi NE 12.7 mph - N/A   Clear